07.05.2024;22:00;21
07.05.2024;21:00;24
07.05.2024;20:00;19
07.05.2024;19:00;22
07.05.2024;18:00;32
07.05.2024;17:00;34
07.05.2024;16:00;29
07.05.2024;15:00;35
07.05.2024;14:00;34
07.05.2024;13:00;28
07.05.2024;12:00;22
07.05.2024;11:00;30
07.05.2024;10:00;32
07.05.2024;09:00;34
07.05.2024;08:00;37
07.05.2024;07:00;27
07.05.2024;06:00;18
07.05.2024;05:00;7
07.05.2024;04:00;7
07.05.2024;03:00;8
07.05.2024;02:00;8
07.05.2024;01:00;8
07.05.2024;00:00;13
06.05.2024;23:00;15
06.05.2024;22:00;16
06.05.2024;21:00;20
06.05.2024;20:00;31
06.05.2024;19:00;41
06.05.2024;18:00;46
06.05.2024;17:00;39
06.05.2024;16:00;43
06.05.2024;15:00;35
06.05.2024;14:00;26
06.05.2024;13:00;25
06.05.2024;12:00;25
06.05.2024;11:00;34
06.05.2024;10:00;42
06.05.2024;09:00;50
06.05.2024;08:00;40
06.05.2024;07:00;42
06.05.2024;06:00;27
06.05.2024;05:00;26
06.05.2024;04:00;18
06.05.2024;03:00;15
06.05.2024;02:00;15
06.05.2024;01:00;18
06.05.2024;00:00;26
05.05.2024;23:00;32
